FALCON 9 DEB, 62718

Orbit data source: Space-Track

FALCON 9 DEB, 62718 is space debris in HEO originally from a launch on Wed, 15 Jan 2025 UTC launched from the Air Force Eastern Test Range (AFETR). Debris objects in space refer to the collection of defunct objects orbiting the Earth. Examples of debris include non-operational satellites, rocket bodies, and fragments generated from explosions, collisions, or faulty payload assembly.

Loading next visibility...
FALCON 9 DEB details
Identifier
62718, 2025-010C
Orbit
HEO
Last TLE update1 month ago
Origin
Flag of USSpaceX (US)
ManufacturerSpaceX
MissionSpacecraft
Bus & MotorUnknown
Mass~50 kg wet, ~50 kg dry
Launch date (UTC)
2025-01-15 (1 month ago)
Launch vehicleUnknown
Launch site
Air Force Eastern Test Range (AFETR)
Object type
Payload
Rocket body
Debris
Shape & HBRUnknown
Radar Cross SectionRCS unknown

Expand to show TLE details & history

TLE from 1 month ago
0 FALCON 9 DEB
1 62718U 25010C   25015.29938097 -.00032000  26295-4  00000-0 0  9996
2 62718  35.0400 359.0739 9608400 346.4200   0.0135  0.12641706    06
Epoch: 2025-01-15T07:11Z
Definitive object data (Epoch: 2025-01-15T07:11:06.515Z)
Latitude27.93165°
Longitude-94.20469°
Altitude41,607.797 km
Speed3.773 km/s
True Right ascension08h 34m 15s
True Declination27° 54' 38"
Sunlit
Object was in daylight at TLE epoch
Visualization TLE readout
Latitude17.47097°
Longitude-69.94583°
Altitude121,399.654 km
Speed1.965 km/s
Apparent Right ascension10h 03m 03s
Apparent Declination15° 59' 26"
Sunlit
Object is in daylight
Visualization observer readout
Local Sidereal Time14:16:58
Azimuth265.735° W
Elevation30.397°
Doppler factor1
Orbital elements
Apogee altitude322,465.897 km
Perigee altitude189.218 km
Semi-major axis167,705.694 km
Eccentricity0.96084
Inclination35.04°
RAAN359.0739°
Arg. of periapsis346.42°
True anomaly2.42466°
Mean anomaly0.0135°
Eccentric anomaly0.3427°
Mean motion0.0316 °/min
BSTARUnknown
Orbital period11391.5 mins
Loading maneuver chart data...
Loading historical data...
Loading historical data...
Loading historical data...
Loading historical data...
Loading historical data...
Loading historical data...
Loading historical data...
Other satellites on launch #10 in the year 2025 (2025-01-15 UTC)

FALCON 9 DEB Visibility forecast

Observer location: undefined°, undefined

Span
Click to sort rows by Start time (UTC) header in descending order
Start Az.
Max El. time (UTC)
Max El. Az.
Max El.
End time (UTC)
End Az.
107 mins2025-02-16 11:30:35.825Z265.729° W2025-02-16 11:30:35.825Z265.729° W26.838°2025-02-16 13:17:35.825Z281.263° WNW
566 mins2025-02-17 02:04:35.825Z82.282° E2025-02-17 07:50:35.825Z179.95° S41.465°2025-02-17 11:30:35.825Z255.726° W
|